CZ-6A DEB, 56602

Orbit data source: Space-Track

CZ-6A DEB, 56602 is space debris in SSO originally from a launch on Fri, 11 Nov 2022 UTC launched from the Taiyaun Space Center, China (TSC). Debris objects in space refer to the collection of defunct objects orbiting the Earth. Examples of debris include non-operational satellites, rocket bodies, and fragments generated from explosions, collisions, or faulty payload assembly.

Loading next visibility...
Identifier
56602, 2022-151AEA
Orbit
SSO
Country
Flag of CNCN / PRC
Related business
Manufacturer
SAST
Mission
Spacecraft
Bus & Motor
Unknown
Mass
Unknown
Launch date (UTC)
2022-11-11 (3 years ago)
Launch vehicle
Unknown
Launch site
Taiyaun Space Center, China (TSC)
Object type
Payload
Rocket body
Debris
Shape & HBR
Unknown shape, 0.1 m
Radar Cross Section
Small (<0.1 m²)

Expand to show TLE details & history
Last TLE update: 5 days ago

TLE from 5 days ago
0 CZ-6A DEB
1 56602U 22151AEA 25350.98156356  .00006314  00000-0  23664-2 0  9995
2 56602  98.7919   4.6558 0030735  65.1943 295.2432 14.31770779145876
Epoch: 2025-12-16T23:33Z
TLE epoch observation values (Epoch: 2025-12-16T23:33:27.091Z)
Latitude
0.00002°
Longitude
-74.56506°
Altitude
779.409 km
Speed
7.469 km/s
True Right ascension
00h 18m 37s
True Declination
0° 00' 00"
Sunlit
Object was in daylight at epoch
Visualization orbit readout
Latitude
Unknown
Longitude
Unknown
Altitude
Unknown
Speed
Unknown
Apparent Right ascension
Unknown
Apparent Declination
Unknown
Sunlit
N/A
Visualization observer readout
Local Sidereal Time
17:40:37
Azimuth
Unknown
Elevation
Unknown
Doppler factor
Unknown
Orbital elements
Apogee altitude
804.974 km
Perigee altitude
760.955 km
Semi-major axis
7,161.102 km
Eccentricity
0.00307
Inclination
98.7919°
RAAN
4.6558°
Arg. of periapsis
65.1943°
True anomaly
294.92411°
Mean anomaly
295.2432°
Eccentric anomaly
295.08371°
Mean motion
3.58157 °/min
Orbital period
100.51 mins
BSTAR
0.0023664
Loading maneuver chart data...
Computing Atmospheric mass density...
Loading historical data...
Loading historical data...
Loading historical data...
Loading historical data...
Loading historical data...
Loading historical data...
Loading historical data...

Documentation

Showing up to 5 results
|